This demonstration page uses our WeatherBlox Daily Observations layout. Learn more.

Left ArrowRight Arrow

44.31136, -96.79839

Hourly Observations for May 26, 2022

Temp ( °F °C ) Dew Point ( °F °C ) Humidity (%) Winds ( mph kmh ) Pressure ( in mb ) Visibility ( mi km ) Precip ( " mm )
12:45 am 00:45 Cloudy 48 9 45 7 87 87 N 9 15 29.90 1012 10 16 0.00 0.00
12:56 am 00:56 Cloudy 49 9.4 45 7.2 86 86 N 8 13 29.93 1014 10 16 0.00 0.00
1:28 am 01:28 Cloudy 48 9 45 7 87 87 N 6 9 29.90 1012 10 16 0.00 0.00
1:56 am 01:56 Mostly Cloudy 47 8.3 45 7.2 93 93 N 7 11 29.94 1014 10 16 0.00 0.00
2:04 am 02:04 Cloudy 46 8 45 7 93 93 N 7 11 29.91 1013 10 16 0.00 0.00
2:56 am 02:56 Cloudy 48 8.9 44 6.7 86 86 N 9 15 29.93 1014 10 16 0.00 0.00
3:56 am 03:56 Cloudy 46 7.8 44 6.7 93 93 N 7 11 29.93 1014 10 16 0.00 0.00
4:48 am 04:48 Mostly Clear 43 6 43 6 100 100 N 6 9 29.92 1013 10 16 0.00 0.00
4:56 am 04:56 Mostly Clear 42 5.6 42 5.6 100 100 N 5 7 29.95 1014 10 16 0.00 0.00
5:56 am 05:56 Mostly Cloudy with Mist and Fog 41 5 41 5 100 100 N 6 9 29.95 1014 3 5 0.00 0.00
6:12 am 06:12 Cloudy with Mist and Fog 43 6 41 5 93 93 NNW 5 7 29.94 1014 3 4 0.00 0.00
6:23 am 06:23 Cloudy with Mist and Fog 43 6 43 6 100 100 NNW 6 9 29.94 1014 3 5 0.00 0.00
6:56 am 06:56 Cloudy with Mist and Fog 45 7.2 43 6.1 93 93 NNW 7 11 29.97 1015 5 8 0.00 0.00
7:10 am 07:10 Mostly Cloudy with Mist and Fog 45 7 43 6 93 93 NNW 8 13 29.95 1014 3 4 0.00 0.00
7:13 am 07:13 Cloudy with Mist and Fog 45 7 43 6 93 93 NNW 8 13 29.95 1014 1 2 0.00 0.00
7:20 am 07:20 Cloudy with Fog 45 7 43 6 93 93 NNW 9 15 29.95 1014 1 1 0.00 0.00
7:31 am 07:31 Cloudy with Mist and Fog 46 8 43 6 87 87 NNW 7 11 29.94 1014 2 3 0.00 0.00
7:39 am 07:39 Cloudy 48 9 43 6 82 82 NNW 10 17 29.94 1014 7 11 0.00 0.00
7:56 am 07:56 Cloudy 49 9.4 42 5.6 77 77 NNW 9 15 29.97 1015 10 16 0.00 0.00
8:22 am 08:22 Mostly Sunny 50 10 43 6 76 76 NNW 12 19 29.93 1014 10 16 0.00 0.00
8:56 am 08:56 Partly Cloudy 54 12.2 42 5.6 64 64 N 13 20 29.97 1015 10 16 0.00 0.00
9:30 am 09:30 Mostly Cloudy 55 13 41 5 59 59 N 14 22 29.91 1013 10 16 0.00 0.00
9:56 am 09:56 Mostly Cloudy 56 13.3 42 5.6 60 60 N 8 13 29.97 1015 10 16 0.00 0.00
10:26 am 10:26 Partly Cloudy 57 14 41 5 55 55 N 12 19 29.91 1013 10 16 0.00 0.00
10:56 am 10:56 Sunny 59 15 41 5 51 51 NNW 9 15 29.97 1015 10 16 0.00 0.00
11:56 am 11:56 Sunny 62 16.7 42 5.6 48 48 NNW 14 22 29.97 1015 10 16 0.00 0.00
12:56 pm 12:56 Sunny 63 17.2 43 6.1 48 48 NW 9 15 29.96 1015 10 16 0.00 0.00
1:56 pm 13:56 Sunny 66 18.9 43 6.1 43 43 NW 8 13 29.94 1014 10 16 0.00 0.00
2:56 pm 14:56 Sunny 69 20.6 43 6.1 39 39 N 8 13 29.91 1013 10 16 0.00 0.00
3:56 pm 15:56 Sunny 71 21.7 44 6.7 38 38 NNW 7 11 29.91 1013 10 16 0.00 0.00
4:56 pm 16:56 Sunny 73 22.8 45 7.2 37 37 NNW 6 9 29.90 1013 10 16 0.00 0.00
5:56 pm 17:56 Sunny 74 23.3 44 6.7 34 34 NW 10 17 29.91 1013 10 16 0.00 0.00
6:56 pm 18:56 Sunny 73 22.8 42 5.6 33 33 NW 13 20 29.90 1013 10 16 0.00 0.00
7:56 pm 19:56 Sunny 69 20.6 44 6.7 41 41 N 6 9 29.91 1013 10 16 0.00 0.00
8:56 pm 20:56 Sunny 63 17.2 45 7.2 52 52 E 7 11 29.92 1013 10 16 0.00 0.00
9:56 pm 21:56 Clear 61 16.1 44 6.7 54 54 ESE 6 9 29.93 1014 10 16 0.00 0.00
10:56 pm 22:56 Clear 56 13.3 45 7.2 67 67 SE 8 13 29.94 1014 10 16 0.00 0.00
11:56 pm 23:56 Clear 52 11.1 44 6.7 75 75 SSE 6 9 29.95 1014 10 16 0.00 0.00

Powered by AerisWeather